Vorticity
15 13 12 9 8 10 10 6 3 6 10 3 -2 2 5 7 13 12 7 8 8 6 7 7 7 11 9 3 3 5 7 11 12 12 10 8 7 6 4 4 3 5 6 6 6 5 5 6 6 5 4 5 8 9 7 8 9 7 7 7 8 8 10 11 11 9 8 7 8 8 8 8 9 10 10 11 11 10 10 9 9 9 8 9 10 11
16 15 13 11 13 13 11 9 6 8 10 8 4 0 -1 3 8 11 8 4 8 9 7 6 5 7 7 4 5 5 5 10 11 9 10 9 6 6 6 4 4 4 4 6 6 6 5 5 5 6 5 4 7 8 6 8 9 7 6 7 8 9 10 12 11 9 8 6 6 6 6 7 8 8 9 10 12 11 12 12 11 11 11 11 12 11
15 15 15 16 16 13 12 10 7 9 8 6 9 5 2 5 2 7 12 2 3 14 10 6 6 5 6 6 5 5 4 6 9 7 9 11 8 8 6 5 7 6 4 5 6 6 6 4 4 5 5 4 5 7 5 6 10 8 6 6 7 9 9 11 12 10 7 6 5 5 5 6 6 7 7 7 9 10 11 12 12 12 12 12 11 10
9 13 18 19 18 16 14 12 9 10 7 4 8 3 3 11 2 1 14 6 -1 8 8 6 10 7 5 9 7 5 5 4 7 8 8 10 9 9 9 8 8 7 5 4 5 6 6 5 5 4 5 5 4 6 5 6 9 9 7 6 6 9 10 11 12 10 7 5 5 4 5 5 5 5 6 6 6 7 8 8 9 9 9 9 8 6
4 10 15 17 20 20 17 15 13 11 7 6 9 3 1 10 8 -0 6 10 3 -1 -4 -3 9 12 5 6 8 5 4 4 5 8 10 9 8 8 9 11 11 8 5 4 5 6 5 5 5 4 4 4 5 5 4 6 9 9 8 6 5 7 9 10 11 10 8 6 5 5 5 5 6 5 5 6 6 5 6 6 6 7 6 6 6 5
5 10 11 14 20 21 21 19 14 11 8 6 9 10 7 7 10 5 3 10 8 1 0 -6 -4 8 9 5 7 6 3 5 4 4 9 9 8 9 7 9 12 10 7 5 5 6 6 5 6 5 4 4 5 5 3 4 8 10 9 6 4 5 7 9 10 10 9 7 5 6 6 5 5 5 5 5 6 6 5 6 5 5 6 5 4 5
6 8 7 11 17 19 23 22 18 15 8 7 10 9 8 7 9 8 5 8 6 1 7 3 -10 -5 8 9 12 14 7 3 3 2 5 7 7 10 9 8 10 10 9 8 6 6 6 6 7 6 4 5 5 4 3 4 6 9 10 8 5 4 6 7 8 9 9 8 7 5 6 7 6 5 5 5 5 6 5 5 5 5 5 5 5 5
8 8 6 8 12 15 17 18 21 19 7 6 12 9 8 10 10 8 4 5 8 5 4 6 1 -5 0 4 7 16 14 5 1 -1 2 4 4 6 8 8 8 7 9 10 9 8 6 5 6 5 5 6 6 5 4 3 5 8 9 9 7 5 5 5 6 8 8 8 8 7 6 6 7 6 5 6 5 6 6 5 5 5 5 5 5 5
7 6 5 6 8 11 14 16 19 19 10 8 11 10 10 9 7 8 7 3 7 12 8 6 8 3 -2 2 6 12 14 10 5 2 5 6 2 2 5 7 8 6 6 9 9 8 8 6 5 5 5 6 6 5 4 4 5 7 8 8 8 8 7 5 4 5 6 7 7 7 8 6 6 6 6 7 6 6 7 6 5 6 6 6 5 5
8 7 7 7 7 6 10 17 20 18 13 11 11 10 11 10 7 7 9 9 8 12 13 9 12 10 -0 -0 10 15 14 15 13 8 9 10 5 2 4 5 7 7 5 6 7 7 8 8 6 5 4 6 6 5 4 5 5 6 8 8 7 8 9 7 5 4 4 5 6 6 7 7 6 6 7 7 7 7 7 7 7 7 6 7 7 6
7 7 7 5 7 8 8 11 18 21 17 12 11 11 11 12 10 7 6 6 5 9 15 10 9 13 5 -3 2 7 9 15 16 9 6 10 9 4 2 3 4 7 6 7 7 6 7 9 8 5 4 5 6 6 5 4 5 6 7 8 7 6 9 9 6 6 5 4 5 5 5 6 6 6 7 7 7 7 7 7 8 8 8 7 7 7
8 8 10 7 5 6 7 8 12 20 20 13 11 11 12 13 12 11 7 3 2 4 9 9 8 10 4 0 4 6 6 9 13 13 7 7 12 11 6 2 3 6 5 6 9 7 6 8 10 8 5 5 5 5 6 4 5 6 7 8 7 4 6 9 8 7 7 5 4 5 5 5 5 5 6 6 7 6 7 7 6 7 7 8 8 7
9 5 5 8 8 6 6 8 8 14 20 18 13 8 10 18 16 12 11 9 8 8 6 5 9 14 5 -3 2 5 4 3 4 9 10 5 8 16 18 9 5 8 4 3 8 9 7 7 10 11 7 5 5 4 5 6 5 5 7 7 7 6 4 6 9 7 7 8 6 5 5 4 5 5 5 5 6 6 6 7 6 6 7 6 8 8
14 16 11 5 6 8 5 6 6 8 15 17 15 10 9 17 22 20 19 14 5 5 13 11 5 11 9 1 1 0 1 3 1 1 5 6 2 9 22 20 10 10 7 2 3 7 11 9 6 10 11 7 6 5 4 5 6 5 6 7 6 6 5 4 7 7 7 9 8 7 6 6 5 5 6 5 5 6 6 7 6 6 6 6 6 7
1 10 21 12 4 8 7 7 7 6 11 14 13 9 3 7 17 20 21 25 20 5 4 11 9 6 8 10 10 5 1 2 3 3 4 9 6 1 13 21 17 12 7 3 1 2 8 11 6 5 9 9 6 7 6 4 7 6 4 7 7 5 5 4 5 6 6 7 9 9 7 7 7 6 6 6 6 6 6 7 8 7 7 7 7 7
-4 -5 10 10 6 8 5 7 7 4 12 18 14 8 -0 -2 8 12 4 6 18 11 -4 1 12 8 3 12 17 13 12 8 6 9 7 10 14 7 3 9 19 22 13 4 2 1 2 7 11 6 4 8 7 5 8 5 6 8 6 5 6 6 5 4 5 6 6 6 7 8 7 6 7 7 6 6 6 6 6 6 7 7 7 7 7 7
7 10 15 8 8 10 4 7 10 3 5 11 15 16 7 -4 -0 12 10 1 8 15 4 -0 13 12 3 10 17 12 12 11 9 10 7 5 11 13 9 4 9 20 22 15 4 0 2 3 9 11 4 5 8 5 6 7 5 6 8 7 5 6 6 5 5 5 5 6 5 6 6 5 5 6 6 5 5 5 6 7 6 6 8 7 6 7
-4 6 17 8 4 11 7 4 7 6 -2 -4 10 22 20 12 8 10 11 10 17 22 14 5 10 16 14 18 21 13 8 9 9 9 6 5 6 10 13 9 4 5 17 33 22 0 2 5 3 10 9 3 6 6 4 5 6 6 7 8 7 5 6 6 5 6 5 5 5 5 5 5 5 6 5 5 5 4 4 5 6 6 6 7 6 6
2 4 19 19 7 7 11 7 7 16 11 -4 -2 7 9 11 18 21 11 4 12 21 27 27 14 6 11 17 16 10 7 7 8 8 6 6 6 6 9 10 12 7 9 41 47 10 -2 8 4 4 8 6 4 6 5 3 4 7 7 7 7 5 6 6 5 6 5 4 4 4 4 5 4 5 5 6 5 6 6 5 5 6 5 6 7 5
10 2 7 20 16 6 12 12 4 9 16 11 8 11 10 3 3 15 16 8 5 2 10 27 22 6 6 12 12 7 4 3 5 7 6 4 4 5 6 6 11 11 3 25 51 29 -1 -0 7 7 5 6 6 2 4 6 4 5 7 8 9 7 6 6 6 6 6 5 4 3 3 3 4 4 4 6 6 5 7 7 5 6 6 5 6 6
13 5 -10 -1 18 17 15 14 5 1 4 7 12 14 18 18 8 5 7 10 10 -0 -4 9 15 11 6 3 8 11 7 5 5 5 3 5 6 4 4 3 5 10 4 5 28 40 26 5 0 9 7 3 8 5 1 5 6 5 6 7 9 9 7 7 7 6 6 5 5 5 4 2 2 4 3 4 6 6 6 7 6 6 7 6 7 7
13 14 -3 -8 9 14 11 11 8 8 5 -2 -0 1 5 14 17 13 11 14 14 8 6 5 0 6 10 4 7 12 9 6 6 5 4 4 4 2 3 3 2 7 9 3 0 19 47 40 8 5 13 6 3 6 4 5 5 4 6 7 8 9 9 9 8 8 7 6 6 5 5 5 2 2 4 3 4 6 5 6 7 6 6 6 6 7
10 13 11 6 2 -3 4 13 9 10 13 6 2 2 2 5 10 10 8 10 17 18 20 14 -0 -2 6 11 15 12 6 5 5 4 5 4 3 4 7 8 6 5 7 10 2 -4 30 60 32 3 6 9 7 7 4 5 6 4 5 7 8 8 8 9 8 8 7 6 7 7 5 6 5 2 4 5 4 5 6 6 7 7 6 7 6 7
13 13 14 12 7 3 6 11 9 9 12 12 10 8 6 5 7 9 4 0 7 16 19 18 11 0 -6 6 23 17 3 3 7 7 6 4 4 2 2 6 9 10 6 8 11 1 7 35 40 18 2 -3 3 10 8 7 5 3 5 6 8 9 7 7 7 7 9 7 6 9 7 5 7 6 4 5 5 4 5 6 6 7 7 7 7 7
11 14 15 12 16 22 18 12 13 15 13 13 14 12 9 7 5 8 10 5 4 8 8 9 15 10 -6 7 38 34 6 -3 6 12 8 5 8 6 1 2 0 4 10 8 11 13 7 8 20 32 29 12 2 2 3 6 5 2 5 6 6 7 6 6 7 4 6 10 8 8 9 6 6 7 6 6 6 6 6 6 7 8 8 7 8 7
6 8 12 12 10 10 13 15 14 12 12 13 14 13 12 13 10 8 9 10 8 6 4 5 11 7 -8 8 45 41 7 -3 8 12 7 4 11 11 6 7 3 -3 4 9 7 10 13 7 3 14 28 31 27 16 1 -0 6 6 6 6 6 9 8 5 7 7 4 7 10 9 8 8 7 7 6 5 6 5 5 7 7 8 8 7 7 7
7 8 9 11 7 -4 -4 5 6 3 4 5 6 10 11 12 13 12 8 7 10 12 13 10 7 6 -0 11 41 39 5 -7 7 11 6 4 8 12 10 8 8 4 0 5 9 8 7 6 3 2 6 15 32 40 22 -1 -0 7 7 8 7 7 10 7 2 7 8 5 8 9 8 9 8 8 8 6 6 6 5 7 8 8 8 7 7 7
8 11 10 10 11 7 5 9 11 10 9 8 7 7 9 11 13 14 13 11 13 15 17 14 9 12 13 10 27 40 20 0 5 6 3 5 7 9 11 8 5 3 -0 -1 3 9 9 5 2 2 5 7 15 38 45 15 -1 7 4 2 10 7 7 12 7 4 6 6 7 7 6 7 7 9 10 7 7 9 7 7 8 8 9 7 6 7
6 9 11 11 12 13 13 12 12 13 12 12 13 9 8 11 11 13 16 15 11 5 4 10 9 8 14 14 16 27 26 19 18 9 -0 3 5 1 3 8 6 -1 -2 2 2 4 9 10 7 2 8 12 5 26 62 39 -2 5 8 -4 10 17 4 5 10 8 6 5 7 8 5 4 5 8 9 7 6 8 8 10 11 8 8 8 6 6
7 9 11 14 16 15 13 10 9 11 11 11 13 13 13 13 11 10 13 15 16 13 8 12 13 7 10 16 12 10 14 20 21 13 3 0 3 4 1 -0 5 3 -4 -1 5 6 6 8 12 9 10 18 5 14 72 72 3 -11 16 8 3 14 10 3 6 9 10 6 5 7 4 3 5 5 4 4 5 6 6 9 8 2 4 9 7 6
8 10 10 11 13 13 12 12 10 8 9 9 10 12 13 13 14 12 10 10 12 15 15 13 14 12 9 10 9 6 9 14 15 10 7 6 5 7 3 0 19 34 20 4 3 8 10 8 12 12 10 25 19 -2 39 85 44 -7 0 11 7 9 10 7 4 5 9 8 6 6 3 4 6 4 3 3 5 5 3 6 8 2 2 8 8 6
8 7 8 7 6 7 8 12 16 17 15 12 9 11 9 8 12 12 12 12 7 7 14 16 15 14 11 9 10 8 6 8 11 10 11 15 11 7 9 7 8 18 19 13 7 5 9 10 13 13 6 19 36 9 -6 39 66 37 5 -5 0 9 11 9 9 10 10 8 6 6 5 6 6 4 5 5 3 3 4 5 9 6 2 6 9 9
8 5 5 5 4 5 5 9 17 20 19 16 12 11 9 6 9 10 12 14 11 8 10 13 16 15 12 11 9 13 19 10 1 9 22 25 14 7 16 12 -12 -19 -4 9 8 5 8 9 9 15 8 7 29 32 3 -4 27 57 52 19 -4 -0 4 2 5 9 9 6 5 7 6 4 3 4 8 8 4 3 4 5 7 5 3 5 5 4
8 5 5 6 6 7 6 7 14 17 15 13 12 11 10 8 8 10 13 15 14 13 9 8 15 16 16 16 4 7 32 31 9 11 25 29 23 12 12 12 -2 -8 0 4 4 4 5 7 8 11 13 10 16 28 25 5 -5 20 54 54 31 20 17 11 10 12 11 6 2 4 7 5 3 4 6 6 4 4 4 4 3 2 3 3 3 3
8 5 4 6 8 10 8 5 10 13 12 11 11 10 8 8 7 7 12 14 12 13 12 9 14 15 16 24 12 -7 6 27 29 20 6 3 16 17 11 13 11 6 6 5 6 7 3 5 10 9 8 14 18 19 21 18 4 -3 11 29 35 36 34 31 31 34 35 30 16 4 2 4 4 5 6 4 3 4 4 3 3 4 4 2 4 9
7 5 5 7 7 9 10 8 7 9 10 11 12 12 9 9 10 7 8 13 14 15 14 9 12 16 15 22 23 5 -8 3 22 26 7 -4 4 11 13 18 16 9 8 7 5 6 5 3 5 7 6 6 12 19 19 18 13 4 -0 4 9 16 20 18 21 29 38 48 46 28 12 4 -1 -2 -0 1 0 0 1 3 3 4 5 1 3 7
6 4 5 7 8 9 10 9 8 7 9 11 12 15 15 12 11 10 10 13 15 15 15 11 10 14 15 16 23 22 11 6 10 10 6 7 11 8 9 15 15 11 8 5 3 4 5 5 2 3 7 6 4 11 17 20 16 8 6 8 6 7 10 7 6 10 15 29 44 43 34 27 22 18 12 8 7 2 1 5 5 1 3 5 5 5
6 5 6 6 8 10 11 10 10 8 7 10 11 11 14 12 10 11 12 15 18 16 15 14 11 12 15 15 19 22 19 20 21 9 1 12 24 19 10 6 7 11 9 5 6 6 3 4 4 1 1 4 6 7 9 15 19 13 9 11 10 9 10 7 4 3 5 14 23 28 28 21 21 39 45 33 26 19 8 10 14 13 15 17 13 10
6 4 6 7 6 9 11 10 9 8 5 7 10 10 12 12 9 10 13 14 19 20 15 14 15 13 13 13 15 18 14 13 21 19 9 11 16 13 10 7 3 5 9 6 4 6 5 3 4 4 4 4 6 9 7 7 11 11 8 8 10 12 11 8 7 4 5 12 12 16 21 -0 -14 18 46 41 39 39 30 30 30 20 17 22 20 17
7 6 4 6 5 7 13 11 7 8 7 7 9 9 10 11 9 10 13 12 13 16 14 12 14 13 13 13 13 15 15 10 11 16 15 11 4 -4 -4 3 3 0 4 6 3 3 5 5 3 4 7 5 2 6 7 5 6 9 8 5 5 10 10 9 9 6 7 12 9 12 20 6 -11 5 19 12 15 18 18 38 51 34 19 25 29 28
6 7 4 4 5 6 11 12 8 8 8 8 9 9 9 11 11 10 9 8 9 13 13 12 14 13 15 16 13 12 16 15 11 11 13 14 14 10 6 5 3 -1 -1 3 4 3 2 3 6 6 2 -2 -0 7 10 7 5 6 9 8 5 7 9 8 9 9 7 10 10 9 14 11 7 13 9 -3 -1 -5 -15 2 30 36 34 34 31 25
7 8 5 3 5 8 10 11 9 8 7 7 9 9 8 8 10 11 11 10 11 14 15 15 17 17 16 16 15 13 14 16 14 12 10 9 12 17 19 18 13 7 3 3 5 6 5 4 7 7 0 -4 4 14 14 11 9 8 10 12 9 7 8 7 7 8 6 5 6 7 10 10 10 16 15 7 8 10 1 -4 1 14 29 38 40 34
7 7 7 5 5 7 10 12 11 8 7 8 9 9 9 7 8 10 11 10 10 12 14 15 17 19 18 16 14 14 16 17 16 13 9 8 9 8 10 13 13 9 7 6 5 5 6 6 6 4 0 0 10 18 15 9 10 10 10 11 11 9 10 9 8 7 7 6 5 5 8 10 9 11 13 10 8 11 13 11 5 1 3 10 25 42
8 6 6 7 8 8 7 10 12 10 9 9 9 9 9 9 9 8 7 9 11 12 13 14 16 20 21 16 12 13 17 21 22 17 9 5 8 9 7 7 7 6 4 4 4 3 3 4 6 5 2 5 12 17 14 9 9 10 9 9 9 9 10 11 11 10 8 7 7 6 6 8 8 7 7 8 8 8 10 14 16 13 8 1 0 14
10 8 6 4 6 8 7 8 10 10 8 9 10 9 9 9 10 10 8 8 10 11 12 13 14 18 21 19 12 8 13 21 26 25 18 10 7 8 8 6 5 5 5 4 3 3 3 3 4 4 4 9 14 14 11 11 12 11 9 8 8 9 9 9 10 11 11 9 8 8 8 7 6 7 6 6 6 8 11 14 16 17 18 16 9 2
9 9 10 8 5 6 7 8 9 8 8 10 10 10 11 11 11 11 10 8 8 10 12 12 12 13 17 20 16 8 6 15 23 25 23 21 17 15 14 12 9 7 8 8 8 6 5 5 6 7 8 13 17 13 10 13 15 12 9 8 8 8 8 9 10 11 11 11 10 9 9 9 8 8 9 9 7 6 6 8 12 14 14 14 16 14
12 8 7 8 7 6 8 10 10 10 10 11 11 10 11 12 12 12 12 10 9 9 10 10 11 11 12 15 17 13 7 10 16 20 21 21 22 23 23 21 19 15 14 14 13 11 10 9 10 12 14 16 17 13 11 13 15 12 10 9 9 7 6 8 10 11 10 11 11 10 9 10 11 10 9 9 9 8 6 6 8 10 10 10 12 14
15 12 9 8 8 8 9 10 11 11 10 10 9 11 12 13 14 16 15 13 11 10 9 9 10 10 10 10 13 13 11 11 12 15 17 17 17 20 22 22 22 21 19 18 16 15 14 13 13 14 15 16 15 13 11 12 12 12 11 9 7 7 7 7 9 10 10 10 10 10 10 8 9 10 9 9 9 8 7 8 8 6 6 7 5 6
10 11 11 10 8 9 11 11 10 9 9 9 9 11 14 14 13 14 15 15 13 11 11 11 11 11 11 10 10 10 11 12 13 14 16 16 15 15 16 18 19 18 18 17 16 16 15 15 15 14 14 13 11 10 10 10 10 10 11 10 8 7 6 7 8 8 8 9 8 9 9 9 8 8 8 8 9 8 5 5 6 7 7 5 4 4
10 10 11 10 9 11 13 13 12 8 8 11 11 11 11 11 10 11 14 15 15 14 13 13 13 13 12 11 11 11 10 10 12 13 13 14 14 13 13 14 15 15 16 16 15 15 14 13 12 11 11 10 9 9 8 7 7 7 8 9 10 9 8 8 9 8 8 8 9 8 8 8 8 9 9 7 7 8 8 6 4 4 6 6 6 6
12 13 14 11 10 11 11 11 11 8 9 12 12 9 8 8 9 10 12 13 14 14 13 13 12 13 14 14 13 13 13 12 12 12 11 12 12 12 12 12 12 12 13 14 14 14 14 14 13 13 13 12 11 10 8 7 6 6 7 7 8 9 8 7 7 8 8 8 8 9 9 8 7 6 7 8 7 6 7 7 7 5 5 6 7 7
Height
5873 5874 5875 5876 5877 5879 5881 5882 5883 5885 5886 5888 5891 5892 5893 5894 5894 5895 5895 5896 5897 5898 5898 5899 5900 5901 5901 5902 5902 5903 5903 5905 5906 5907 5907 5908 5908 5909 5910 5910 5910 5912 5913 5914 5915 5915 5915 5915 5916 5916 5917 5917 5918 5918 5919 5920 5921 5922 5922 5922 5921 5921 5921 5922 5922 5922 5922 5922 5922 5922 5923 5923 5924 5924 5924 5925 5925 5926 5927 5927 5928 5929 5930 5931 5932 5934
5871 5872 5873 5873 5875 5877 5879 5880 5882 5884 5884 5886 5888 5890 5891 5892 5892 5893 5894 5895 5896 5897 5897 5898 5899 5900 5901 5902 5902 5903 5903 5904 5905 5906 5907 5907 5908 5908 5909 5910 5911 5912 5913 5914 5915 5915 5915 5915 5916 5916 5917 5917 5918 5918 5919 5920 5921 5922 5922 5922 5922 5922 5922 5923 5923 5923 5923 5923 5923 5923 5924 5924 5925 5925 5926 5926 5927 5927 5928 5929 5929 5930 5931 5932 5933 5934
5870 5870 5871 5872 5873 5875 5876 5878 5880 5882 5883 5884 5886 5888 5890 5890 5891 5892 5893 5894 5894 5895 5896 5897 5898 5900 5901 5902 5902 5903 5903 5903 5904 5905 5906 5907 5908 5908 5909 5910 5911 5912 5913 5913 5914 5915 5915 5915 5916 5916 5917 5917 5918 5918 5919 5920 5921 5922 5923 5923 5923 5923 5923 5923 5924 5924 5924 5924 5924 5924 5924 5925 5926 5927 5927 5928 5928 5929 5929 5930 5931 5931 5932 5933 5934 5935
5868 5869 5869 5870 5872 5873 5874 5876 5878 5880 5882 5883 5884 5887 5887 5887 5889 5891 5891 5892 5893 5894 5896 5897 5898 5900 5900 5901 5902 5902 5902 5903 5904 5905 5906 5907 5908 5908 5909 5910 5911 5912 5912 5913 5914 5915 5915 5915 5916 5916 5917 5917 5918 5918 5919 5920 5921 5922 5923 5923 5924 5924 5924 5924 5925 5925 5925 5925 5925 5925 5925 5926 5927 5928 5928 5929 5930 5930 5931 5931 5932 5933 5934 5935 5936 5937
5867 5868 5869 5869 5870 5871 5873 5874 5876 5878 5880 5881 5882 5884 5885 5885 5887 5888 5889 5891 5892 5893 5895 5896 5897 5899 5900 5900 5901 5901 5902 5902 5903 5904 5905 5906 5906 5907 5909 5909 5910 5912 5912 5913 5913 5914 5915 5915 5916 5916 5917 5917 5918 5918 5919 5920 5921 5922 5923 5923 5924 5924 5925 5925 5925 5926 5926 5926 5926 5927 5927 5928 5928 5929 5929 5930 5931 5932 5932 5933 5933 5934 5935 5936 5937 5938
5866 5867 5868 5869 5869 5870 5871 5873 5874 5876 5877 5879 5880 5881 5882 5882 5884 5887 5888 5890 5892 5893 5894 5895 5897 5898 5898 5899 5900 5901 5901 5901 5901 5902 5903 5904 5905 5906 5908 5909 5910 5911 5912 5913 5913 5914 5915 5915 5916 5916 5916 5917 5917 5918 5918 5920 5921 5922 5923 5924 5924 5924 5925 5926 5926 5926 5927 5927 5928 5928 5929 5929 5930 5930 5931 5931 5932 5933 5933 5934 5935 5935 5936 5937 5938 5939
5866 5866 5867 5868 5868 5869 5870 5871 5873 5874 5876 5878 5877 5878 5879 5880 5882 5885 5887 5889 5891 5890 5892 5894 5895 5896 5897 5897 5899 5899 5899 5900 5901 5901 5902 5903 5904 5905 5906 5907 5909 5910 5911 5912 5913 5914 5914 5915 5916 5916 5916 5917 5917 5918 5918 5919 5920 5922 5923 5924 5924 5925 5925 5926 5926 5927 5927 5928 5928 5929 5929 5930 5931 5932 5932 5932 5933 5934 5934 5935 5936 5936 5937 5938 5939 5940
5864 5865 5866 5867 5867 5868 5868 5869 5870 5872 5875 5875 5874 5876 5878 5878 5880 5883 5884 5887 5888 5888 5891 5893 5894 5895 5896 5897 5897 5898 5898 5898 5899 5900 5900 5901 5902 5903 5904 5906 5907 5908 5909 5910 5912 5912 5913 5914 5915 5915 5916 5917 5917 5917 5917 5918 5920 5921 5922 5923 5924 5924 5925 5926 5927 5927 5928 5928 5929 5929 5930 5931 5931 5932 5933 5933 5934 5934 5935 5935 5936 5937 5938 5938 5939 5940
5863 5864 5865 5865 5866 5867 5867 5868 5868 5870 5872 5872 5873 5875 5875 5876 5878 5880 5882 5884 5885 5888 5890 5892 5894 5895 5895 5895 5896 5896 5896 5897 5897 5898 5897 5898 5900 5901 5902 5903 5905 5907 5908 5909 5910 5911 5912 5912 5913 5914 5915 5916 5917 5917 5917 5918 5919 5921 5922 5923 5924 5924 5925 5926 5926 5927 5928 5928 5929 5929 5930 5931 5932 5932 5933 5934 5935 5935 5935 5936 5936 5937 5938 5939 5939 5940
5862 5862 5863 5864 5865 5866 5866 5866 5867 5869 5870 5870 5872 5873 5873 5875 5877 5878 5880 5882 5884 5887 5888 5889 5892 5893 5893 5894 5894 5894 5894 5895 5896 5896 5896 5897 5898 5899 5900 5901 5903 5904 5906 5908 5909 5909 5910 5911 5911 5912 5914 5916 5917 5917 5918 5918 5919 5920 5921 5922 5923 5924 5925 5925 5926 5927 5927 5928 5929 5929 5930 5930 5931 5932 5933 5934 5935 5935 5936 5936 5936 5937 5938 5938 5939 5940
5860 5861 5862 5863 5864 5864 5865 5865 5866 5867 5868 5869 5870 5871 5872 5874 5876 5878 5880 5881 5883 5885 5885 5887 5890 5891 5891 5891 5892 5892 5892 5893 5894 5894 5895 5896 5897 5898 5899 5900 5901 5903 5904 5906 5907 5908 5909 5909 5910 5912 5913 5915 5916 5917 5918 5918 5919 5919 5920 5921 5923 5923 5924 5925 5925 5926 5927 5928 5928 5929 5929 5930 5931 5932 5933 5934 5935 5935 5936 5936 5936 5937 5937 5938 5939 5939
5859 5860 5860 5861 5862 5863 5864 5864 5865 5866 5867 5867 5869 5870 5872 5873 5875 5877 5879 5880 5882 5882 5882 5884 5886 5888 5889 5889 5890 5890 5890 5892 5892 5893 5894 5894 5895 5896 5898 5899 5900 5901 5902 5904 5905 5906 5907 5908 5909 5911 5912 5914 5915 5916 5917 5918 5918 5919 5920 5921 5922 5922 5923 5924 5925 5925 5926 5927 5928 5929 5929 5929 5930 5931 5932 5933 5934 5935 5936 5936 5937 5937 5937 5938 5938 5939
5858 5858 5859 5860 5861 5862 5862 5863 5864 5865 5865 5867 5868 5869 5871 5872 5873 5876 5877 5879 5880 5880 5880 5881 5883 5885 5886 5885 5887 5888 5888 5890 5891 5892 5892 5893 5894 5895 5895 5896 5897 5899 5900 5901 5903 5905 5906 5907 5909 5910 5911 5912 5914 5915 5916 5917 5917 5918 5919 5920 5921 5922 5923 5923 5924 5925 5925 5926 5927 5928 5929 5929 5930 5930 5931 5932 5933 5934 5935 5936 5937 5937 5938 5938 5939 5939
5858 5858 5858 5858 5859 5860 5861 5862 5863 5864 5864 5865 5867 5868 5870 5872 5873 5874 5876 5877 5878 5878 5878 5879 5881 5883 5883 5882 5884 5886 5887 5888 5889 5890 5891 5891 5892 5893 5893 5894 5895 5897 5899 5900 5901 5903 5905 5906 5907 5908 5910 5911 5911 5912 5914 5915 5916 5917 5918 5919 5920 5921 5921 5922 5923 5924 5925 5925 5926 5927 5928 5929 5929 5930 5931 5931 5932 5933 5934 5935 5936 5937 5938 5939 5939 5940
5858 5858 5856 5857 5857 5858 5859 5860 5861 5862 5863 5864 5865 5867 5868 5871 5872 5874 5875 5876 5876 5876 5875 5877 5879 5881 5881 5881 5882 5883 5885 5886 5887 5888 5890 5890 5890 5891 5891 5891 5893 5895 5897 5898 5899 5901 5903 5905 5906 5907 5908 5909 5909 5911 5912 5913 5915 5916 5917 5918 5918 5919 5920 5921 5922 5923 5924 5925 5925 5926 5927 5928 5929 5929 5930 5931 5931 5932 5933 5934 5936 5936 5937 5938 5939 5939
5857 5856 5854 5855 5856 5857 5858 5858 5860 5862 5863 5863 5864 5865 5867 5868 5869 5871 5872 5872 5873 5873 5873 5874 5877 5878 5879 5880 5880 5882 5883 5885 5886 5887 5888 5888 5888 5889 5888 5889 5891 5893 5894 5896 5897 5899 5901 5903 5904 5906 5906 5907 5908 5909 5910 5912 5913 5915 5915 5916 5917 5918 5919 5920 5921 5922 5923 5923 5924 5925 5926 5927 5928 5928 5929 5930 5930 5931 5932 5933 5935 5935 5936 5937 5938 5939
5855 5854 5853 5854 5854 5855 5856 5857 5858 5860 5862 5862 5863 5863 5864 5865 5865 5867 5868 5868 5869 5871 5871 5872 5874 5876 5877 5878 5879 5880 5881 5882 5884 5885 5886 5887 5887 5887 5887 5888 5889 5890 5892 5893 5894 5896 5898 5900 5903 5904 5905 5906 5907 5908 5909 5910 5912 5912 5913 5914 5915 5916 5917 5918 5919 5920 5921 5922 5923 5924 5925 5925 5926 5927 5928 5929 5930 5930 5931 5932 5933 5935 5935 5936 5937 5938
5853 5852 5851 5852 5853 5853 5854 5855 5856 5858 5859 5860 5861 5861 5861 5863 5863 5865 5866 5866 5867 5868 5869 5870 5872 5873 5874 5875 5876 5878 5878 5880 5882 5883 5884 5885 5885 5886 5886 5886 5887 5887 5888 5889 5890 5892 5894 5896 5899 5902 5903 5904 5905 5906 5907 5908 5909 5910 5911 5912 5913 5914 5915 5916 5917 5919 5920 5921 5922 5922 5923 5924 5925 5926 5927 5928 5929 5930 5930 5931 5932 5933 5934 5935 5936 5937
5851 5851 5850 5850 5851 5852 5853 5854 5855 5855 5856 5858 5859 5859 5860 5861 5861 5862 5864 5864 5865 5866 5867 5868 5869 5870 5871 5873 5874 5875 5876 5877 5879 5881 5882 5883 5884 5884 5885 5885 5885 5885 5885 5886 5887 5889 5891 5893 5896 5899 5901 5901 5902 5903 5904 5905 5906 5908 5909 5910 5911 5912 5913 5914 5915 5917 5918 5920 5921 5921 5922 5923 5924 5925 5926 5927 5928 5928 5929 5930 5931 5932 5933 5934 5935 5936
5849 5851 5850 5848 5849 5851 5852 5853 5854 5853 5854 5855 5856 5857 5858 5859 5859 5859 5861 5862 5862 5864 5865 5866 5867 5867 5868 5871 5871 5872 5873 5874 5876 5878 5879 5881 5882 5882 5883 5883 5883 5883 5883 5884 5884 5886 5888 5890 5892 5895 5898 5899 5900 5900 5901 5902 5904 5905 5906 5907 5909 5910 5911 5912 5914 5915 5917 5918 5919 5920 5921 5921 5922 5923 5924 5925 5926 5927 5928 5928 5929 5930 5931 5932 5933 5934
5846 5849 5850 5847 5848 5850 5850 5850 5851 5851 5852 5853 5854 5855 5856 5856 5857 5857 5858 5859 5859 5861 5861 5863 5865 5864 5865 5869 5870 5870 5871 5872 5874 5876 5877 5878 5880 5880 5881 5881 5881 5881 5881 5882 5883 5884 5885 5886 5887 5890 5894 5897 5898 5899 5899 5900 5902 5903 5904 5905 5906 5908 5909 5911 5912 5913 5915 5916 5918 5918 5919 5920 5920 5922 5923 5924 5925 5925 5926 5927 5928 5929 5930 5930 5931 5932
5845 5846 5847 5846 5847 5849 5847 5847 5849 5849 5850 5851 5851 5852 5853 5854 5855 5855 5856 5856 5857 5858 5858 5859 5862 5861 5862 5866 5868 5868 5869 5869 5871 5873 5874 5876 5878 5878 5879 5879 5879 5879 5879 5880 5881 5881 5881 5881 5883 5886 5889 5893 5895 5897 5898 5899 5900 5901 5902 5903 5904 5906 5908 5909 5911 5912 5913 5914 5916 5917 5918 5919 5920 5921 5921 5922 5923 5924 5925 5926 5926 5927 5928 5929 5930 5930
5843 5844 5845 5845 5846 5846 5845 5846 5847 5847 5848 5849 5849 5850 5851 5852 5852 5853 5854 5854 5854 5855 5855 5856 5858 5858 5859 5863 5864 5865 5866 5867 5868 5870 5872 5874 5875 5876 5876 5877 5878 5878 5878 5878 5878 5879 5878 5878 5880 5883 5886 5889 5891 5893 5895 5897 5898 5899 5901 5902 5903 5904 5905 5906 5907 5909 5910 5911 5913 5914 5916 5917 5918 5919 5920 5921 5922 5923 5923 5924 5925 5926 5927 5927 5928 5929
5842 5842 5843 5843 5843 5843 5843 5844 5845 5845 5846 5847 5847 5848 5848 5849 5850 5851 5851 5851 5852 5852 5853 5854 5855 5855 5857 5859 5861 5862 5863 5864 5866 5868 5870 5871 5872 5873 5874 5875 5876 5876 5876 5876 5876 5876 5876 5877 5878 5880 5883 5885 5887 5889 5891 5893 5894 5896 5898 5899 5901 5902 5902 5903 5903 5905 5906 5908 5909 5911 5913 5915 5916 5917 5919 5920 5921 5921 5922 5923 5924 5925 5925 5926 5926 5927
5840 5840 5841 5842 5842 5842 5842 5842 5843 5843 5844 5844 5844 5845 5846 5846 5847 5848 5848 5848 5849 5849 5851 5852 5851 5852 5854 5856 5857 5858 5859 5860 5862 5865 5867 5868 5869 5871 5872 5872 5874 5875 5875 5875 5874 5874 5874 5875 5876 5877 5879 5881 5883 5886 5888 5889 5890 5892 5894 5896 5897 5898 5899 5900 5900 5902 5904 5905 5907 5909 5911 5913 5914 5915 5916 5917 5918 5919 5920 5921 5922 5923 5924 5925 5925 5926
5838 5839 5839 5840 5841 5842 5841 5841 5840 5840 5840 5841 5841 5842 5843 5844 5844 5844 5844 5845 5846 5846 5847 5849 5848 5848 5851 5852 5852 5854 5856 5857 5859 5861 5864 5865 5866 5868 5869 5870 5871 5872 5873 5873 5873 5872 5872 5872 5872 5874 5876 5878 5880 5882 5884 5886 5887 5889 5891 5892 5894 5895 5896 5897 5898 5900 5901 5903 5905 5907 5908 5910 5911 5913 5913 5914 5915 5916 5917 5919 5920 5921 5922 5923 5924 5924
5836 5837 5837 5838 5838 5838 5838 5838 5837 5837 5838 5838 5838 5839 5840 5840 5841 5841 5841 5841 5842 5843 5843 5843 5844 5845 5847 5848 5849 5850 5853 5855 5856 5858 5860 5862 5864 5866 5867 5868 5869 5870 5871 5870 5870 5870 5870 5870 5870 5871 5873 5874 5876 5878 5880 5882 5884 5886 5888 5890 5891 5892 5894 5895 5896 5897 5899 5901 5902 5904 5905 5907 5908 5909 5910 5911 5912 5913 5914 5916 5917 5918 5919 5920 5921 5922
5834 5834 5835 5835 5835 5835 5835 5835 5835 5835 5835 5835 5836 5836 5837 5837 5837 5838 5838 5839 5840 5840 5839 5840 5841 5842 5843 5845 5846 5847 5849 5852 5854 5855 5857 5860 5862 5863 5864 5866 5867 5868 5869 5868 5868 5868 5868 5868 5869 5869 5870 5872 5872 5873 5874 5877 5880 5882 5884 5886 5888 5890 5892 5893 5894 5895 5896 5898 5899 5901 5903 5903 5904 5906 5907 5908 5910 5911 5912 5914 5914 5915 5916 5917 5918 5919
5831 5832 5832 5832 5833 5832 5832 5832 5832 5832 5832 5833 5833 5834 5834 5834 5834 5834 5835 5835 5836 5836 5835 5837 5839 5839 5839 5842 5843 5844 5846 5849 5851 5853 5855 5857 5859 5860 5862 5863 5865 5866 5867 5866 5866 5866 5865 5866 5866 5866 5867 5868 5869 5869 5869 5872 5876 5878 5881 5883 5885 5888 5890 5891 5892 5893 5894 5895 5897 5898 5899 5900 5901 5903 5904 5906 5907 5908 5910 5911 5912 5913 5914 5915 5915 5916
5829 5829 5830 5830 5830 5830 5830 5830 5830 5830 5830 5830 5831 5831 5831 5831 5831 5831 5831 5832 5833 5832 5833 5835 5836 5836 5836 5838 5840 5841 5843 5846 5849 5850 5852 5854 5856 5857 5859 5861 5863 5864 5865 5864 5864 5863 5863 5863 5863 5863 5863 5864 5866 5866 5865 5866 5870 5874 5877 5879 5881 5884 5886 5889 5890 5891 5892 5893 5895 5895 5895 5897 5899 5900 5901 5903 5904 5905 5906 5908 5909 5911 5912 5912 5913 5913
5827 5827 5828 5828 5828 5828 5828 5828 5828 5828 5828 5828 5828 5828 5828 5828 5828 5828 5828 5828 5829 5829 5830 5832 5832 5832 5834 5835 5837 5838 5840 5843 5846 5848 5849 5850 5852 5854 5856 5859 5861 5861 5860 5861 5861 5860 5860 5860 5861 5861 5861 5861 5862 5864 5863 5864 5867 5871 5872 5875 5877 5880 5882 5884 5886 5888 5889 5890 5891 5891 5893 5895 5896 5897 5899 5900 5900 5901 5903 5905 5907 5909 5910 5910 5910 5911
5825 5826 5826 5826 5826 5826 5826 5826 5825 5825 5826 5826 5826 5826 5825 5825 5825 5825 5825 5825 5826 5826 5827 5828 5829 5829 5831 5832 5834 5835 5837 5839 5842 5845 5846 5847 5848 5850 5853 5856 5859 5857 5856 5857 5858 5858 5858 5858 5858 5859 5859 5859 5860 5862 5863 5863 5865 5868 5870 5871 5873 5876 5878 5880 5882 5883 5885 5886 5886 5888 5890 5892 5892 5894 5896 5897 5898 5899 5900 5902 5903 5904 5906 5907 5907 5909
5823 5823 5824 5824 5824 5824 5824 5824 5823 5823 5823 5823 5823 5823 5823 5823 5822 5822 5822 5822 5823 5823 5824 5825 5826 5826 5827 5829 5831 5831 5833 5835 5839 5842 5844 5844 5844 5846 5849 5853 5854 5853 5854 5855 5855 5856 5856 5856 5856 5856 5857 5858 5859 5860 5862 5862 5863 5865 5866 5868 5870 5872 5874 5876 5877 5878 5880 5882 5882 5884 5886 5888 5889 5890 5892 5893 5895 5896 5896 5898 5898 5899 5900 5901 5902 5905
5820 5821 5822 5822 5822 5822 5822 5822 5822 5822 5821 5820 5820 5821 5821 5820 5820 5819 5819 5819 5819 5819 5820 5822 5823 5824 5824 5826 5828 5828 5829 5832 5836 5838 5841 5842 5840 5840 5843 5847 5849 5851 5852 5853 5853 5854 5854 5854 5855 5854 5855 5856 5857 5859 5861 5862 5862 5863 5863 5865 5867 5869 5871 5872 5872 5874 5875 5876 5878 5880 5881 5883 5885 5886 5887 5888 5890 5890 5891 5893 5894 5895 5896 5896 5897 5899
5818 5819 5819 5820 5820 5820 5820 5820 5820 5819 5818 5818 5818 5818 5818 5818 5818 5817 5817 5816 5817 5816 5817 5818 5819 5820 5822 5823 5825 5826 5826 5829 5832 5834 5837 5838 5837 5837 5839 5842 5845 5847 5849 5851 5851 5852 5853 5853 5853 5853 5853 5854 5855 5857 5859 5861 5861 5862 5862 5862 5863 5865 5866 5867 5868 5869 5869 5871 5873 5875 5877 5879 5881 5882 5883 5884 5884 5885 5886 5888 5889 5891 5891 5891 5892 5895
5815 5816 5817 5818 5818 5818 5818 5818 5818 5817 5817 5816 5816 5816 5816 5816 5816 5815 5814 5814 5814 5814 5814 5815 5816 5817 5819 5820 5822 5823 5824 5826 5828 5831 5833 5834 5834 5835 5836 5838 5841 5843 5846 5848 5849 5850 5851 5851 5852 5852 5853 5853 5853 5855 5857 5859 5860 5861 5861 5861 5861 5862 5863 5863 5864 5864 5865 5865 5867 5869 5872 5875 5877 5878 5878 5879 5879 5879 5881 5883 5884 5885 5886 5886 5888 5890
5812 5814 5815 5815 5815 5816 5816 5816 5816 5816 5815 5815 5814 5814 5814 5814 5814 5813 5812 5811 5812 5812 5812 5812 5813 5814 5816 5817 5819 5821 5822 5824 5826 5829 5831 5832 5832 5832 5833 5835 5837 5840 5842 5844 5846 5848 5849 5850 5850 5851 5852 5852 5852 5853 5854 5856 5858 5858 5859 5860 5860 5860 5861 5861 5861 5861 5861 5862 5863 5865 5867 5869 5872 5872 5872 5872 5874 5874 5875 5876 5877 5878 5879 5881 5882 5884
5810 5811 5812 5813 5813 5813 5814 5814 5814 5814 5813 5813 5812 5812 5813 5812 5812 5812 5811 5810 5810 5810 5810 5810 5811 5813 5814 5814 5816 5818 5820 5821 5823 5826 5828 5829 5830 5829 5830 5832 5834 5837 5839 5841 5844 5846 5847 5848 5849 5850 5850 5851 5851 5852 5852 5854 5855 5856 5857 5858 5859 5859 5859 5859 5859 5859 5860 5860 5861 5862 5863 5865 5866 5867 5866 5866 5868 5869 5870 5870 5870 5871 5873 5874 5875 5876
5807 5808 5809 5810 5811 5811 5811 5812 5812 5811 5811 5811 5811 5811 5811 5810 5810 5810 5810 5809 5808 5808 5808 5808 5808 5810 5811 5812 5813 5815 5817 5818 5820 5822 5824 5826 5827 5827 5828 5830 5832 5835 5837 5839 5841 5843 5845 5846 5847 5848 5849 5849 5850 5850 5851 5852 5853 5854 5855 5856 5857 5857 5857 5857 5857 5857 5858 5858 5859 5859 5859 5859 5860 5861 5861 5861 5862 5863 5866 5866 5864 5865 5866 5867 5868 5870
5804 5806 5807 5808 5808 5809 5809 5809 5809 5809 5809 5809 5809 5809 5809 5809 5808 5808 5808 5807 5806 5805 5806 5806 5806 5806 5807 5809 5810 5812 5813 5815 5816 5818 5820 5821 5823 5825 5827 5829 5831 5833 5834 5836 5838 5840 5842 5844 5845 5846 5846 5847 5847 5848 5849 5850 5851 5852 5853 5853 5854 5854 5855 5855 5855 5855 5855 5856 5856 5856 5856 5855 5855 5855 5856 5857 5858 5859 5861 5860 5859 5859 5861 5861 5862 5863
5802 5803 5804 5805 5806 5806 5807 5807 5807 5807 5806 5807 5807 5807 5807 5807 5806 5806 5806 5805 5804 5803 5804 5804 5804 5804 5805 5806 5808 5809 5810 5811 5813 5815 5816 5817 5819 5821 5824 5827 5829 5830 5832 5833 5835 5836 5838 5840 5842 5843 5843 5844 5845 5845 5845 5846 5848 5849 5850 5850 5851 5851 5852 5852 5852 5852 5853 5853 5853 5853 5853 5853 5852 5852 5852 5853 5854 5855 5855 5855 5854 5855 5855 5856 5856 5857
5799 5800 5801 5802 5803 5803 5804 5804 5804 5804 5804 5804 5805 5805 5805 5805 5804 5804 5803 5803 5802 5802 5802 5802 5803 5803 5804 5804 5805 5806 5807 5808 5810 5812 5813 5814 5815 5817 5820 5823 5825 5827 5829 5830 5832 5833 5835 5836 5838 5839 5840 5841 5841 5842 5842 5843 5844 5845 5846 5847 5848 5848 5849 5849 5850 5850 5850 5850 5851 5851 5851 5850 5850 5850 5850 5849 5850 5851 5851 5851 5852 5852 5851 5851 5851 5851
5797 5798 5799 5799 5800 5801 5801 5802 5802 5801 5801 5802 5803 5803 5803 5802 5802 5801 5801 5800 5800 5800 5800 5800 5801 5801 5802 5803 5803 5804 5804 5805 5807 5809 5810 5811 5813 5815 5817 5819 5822 5823 5825 5827 5828 5830 5831 5833 5834 5835 5836 5837 5837 5838 5839 5839 5840 5841 5842 5843 5844 5845 5845 5846 5846 5847 5847 5847 5847 5848 5848 5847 5847 5847 5848 5847 5847 5847 5847 5848 5849 5849 5849 5848 5847 5847
5794 5795 5796 5797 5797 5798 5799 5799 5799 5799 5799 5800 5801 5801 5801 5800 5799 5799 5799 5798 5798 5798 5798 5798 5799 5799 5800 5800 5801 5801 5802 5803 5804 5805 5807 5809 5810 5812 5814 5816 5818 5820 5821 5823 5824 5826 5828 5829 5830 5831 5832 5833 5834 5834 5835 5835 5836 5837 5838 5839 5840 5841 5842 5842 5843 5843 5843 5844 5844 5844 5844 5844 5844 5844 5845 5845 5845 5845 5845 5845 5845 5845 5846 5845 5845 5845
5791 5792 5793 5794 5794 5795 5796 5796 5796 5797 5797 5798 5798 5799 5799 5798 5798 5797 5797 5797 5797 5797 5797 5796 5797 5797 5797 5798 5798 5799 5800 5800 5801 5802 5804 5806 5807 5809 5810 5812 5814 5816 5817 5819 5820 5822 5823 5825 5826 5827 5828 5829 5830 5830 5831 5831 5832 5833 5833 5834 5835 5836 5837 5838 5839 5839 5840 5840 5840 5841 5841 5841 5841 5841 5841 5841 5842 5842 5842 5842 5842 5842 5842 5843 5843 5843
5788 5789 5790 5791 5792 5792 5793 5793 5794 5794 5795 5796 5796 5797 5796 5796 5796 5795 5795 5795 5795 5795 5795 5795 5795 5795 5796 5796 5796 5797 5798 5798 5799 5800 5801 5803 5804 5805 5807 5809 5810 5812 5813 5815 5817 5818 5819 5821 5822 5823 5824 5825 5826 5826 5827 5828 5828 5829 5829 5830 5831 5832 5833 5834 5835 5835 5836 5836 5836 5837 5837 5837 5838 5838 5838 5838 5838 5838 5838 5839 5839 5839 5839 5839 5839 5839
5785 5786 5787 5788 5789 5790 5790 5791 5791 5792 5793 5793 5794 5794 5794 5794 5794 5793 5793 5794 5794 5794 5794 5794 5794 5794 5794 5794 5794 5795 5796 5796 5797 5798 5799 5800 5801 5802 5804 5805 5807 5808 5809 5811 5813 5814 5816 5817 5818 5819 5820 5821 5822 5822 5823 5824 5824 5825 5825 5826 5827 5828 5828 5829 5830 5831 5831 5832 5832 5832 5833 5833 5833 5834 5835 5835 5835 5834 5834 5835 5835 5835 5835 5836 5836 5836
5782 5783 5784 5785 5786 5787 5788 5788 5789 5790 5791 5791 5791 5792 5792 5792 5792 5792 5791 5792 5792 5792 5792 5793 5793 5793 5793 5793 5793 5794 5794 5795 5796 5797 5798 5798 5799 5800 5801 5802 5804 5805 5806 5807 5809 5811 5812 5814 5815 5816 5816 5817 5818 5818 5819 5820 5820 5821 5822 5822 5823 5823 5824 5825 5826 5826 5827 5827 5828 5828 5828 5829 5829 5829 5830 5830 5831 5831 5831 5831 5831 5831 5832 5832 5832 5833
5779 5780 5781 5782 5783 5784 5785 5786 5787 5788 5789 5789 5789 5789 5790 5790 5790 5790 5790 5790 5790 5790 5791 5791 5791 5792 5792 5792 5792 5792 5793 5794 5795 5796 5797 5797 5798 5799 5800 5801 5802 5803 5804 5805 5806 5807 5809 5810 5811 5812 5813 5814 5814 5815 5816 5816 5816 5817 5818 5818 5819 5819 5820 5821 5821 5822 5823 5823 5824 5824 5824 5825 5825 5825 5825 5826 5826 5826 5827 5827 5827 5828 5828 5828 5828 5829
5777 5778 5778 5780 5781 5781 5782 5783 5785 5786 5786 5787 5787 5787 5788 5788 5788 5788 5788 5788 5788 5788 5789 5789 5790 5790 5790 5790 5791 5791 5792 5792 5793 5794 5795 5796 5797 5797 5798 5799 5800 5801 5802 5803 5804 5805 5806 5807 5808 5809 5810 5811 5812 5812 5813 5813 5813 5813 5814 5815 5815 5816 5816 5817 5817 5818 5818 5819 5819 5820 5820 5821 5821 5821 5821 5821 5821 5822 5822 5822 5823 5823 5823 5823 5824 5824
5774 5774 5775 5777 5778 5778 5779 5781 5782 5783 5784 5785 5785 5785 5786 5786 5786 5786 5786 5786 5786 5787 5787 5787 5788 5788 5788 5789 5789 5789 5790 5791 5792 5792 5793 5794 5795 5796 5797 5797 5798 5799 5800 5801 5801 5802 5803 5804 5805 5806 5807 5808 5809 5809 5810 5810 5810 5810 5810 5811 5812 5812 5813 5813 5813 5814 5814 5815 5815 5816 5816 5817 5817 5817 5817 5817 5817 5817 5817 5818 5818 5818 5818 5819 5819 5819